Location: Newark
(34.9500°N, 139.9667°E)
Time: 22:45:32
(UTC+00:00)

deb Explorer IX - Pass Details

Date: 13 December 2019
Orbit: 548 x 1101 km, 38.8° (Epoch: 21 January)

Event Time Altitude Azimuth Distance (km) Brightness Sun altitude
Rises 10:19:46 0° 288° (WNW) 3,562 ? -34.1°
Reaches altitude 10° 10:22:15 10° 288° (WNW) 2,691 ? -34.6°
Enters shadow 10:27:16 56° 279° (W) 1,207 ? -35.6°
